Погода в Видлице

Россия / Республика Карелия     61°11′37″N   32°23′51″E
темп.,
°C
ветер,
м/с
пор.,
м/с
влажн.,
%
обл.,
%
осадки,
мм/ч
давл.,
гПа
погр.,
м
19 сентября, вс
вс1900:00+4в2678100 0.0 1030196
03:00+2вюв1283100 0.0 103149
06:00+2в2583100 0.0 1030124
09:00+6в2666100 0.0 1030410
12:00+8в4655100 0.0 10311406
15:00+9всв465066 0.0 10301383
18:00+8всв48589 0.0 1029722
21:00+4св3107783 0.0 1030258
20 сентября, пн
пн2000:00+3всв312805 0.0 1031420
03:00+2всв3118662 0.0 1031378
06:00+2всв3128371 0.0 1031544
09:00+5в4965100 0.0 10321115
12:00+9в584845 0.0 10301545
15:00+10всв584854 0.0 10291526
18:00+7всв596027 0.0 10291118
21:00+4всв41171100 0.0 1029541
21 сентября, вт
вт2100:00+3всв31076100 0.0 1029344
03:00+3всв3108357 0.0 1027321
06:00+1всв3109370 0.0 1027306
09:00+4всв4107780 0.0 1026515
12:00+9в465292 0.0 10241044
15:00+10всв4649100 0.0 10231158
18:00+8всв376197 0.0 1023718
21:00+5св2878100 0.0 1024202
22 сентября, ср
ср2200:00+4всв268542 0.0 1024137
03:00+2св259131 0.0 1023105
06:00+3св279099 0.0 1023186
09:00+7всв377795 0.0 1023389
12:00+11всв34530 0.0 1022850
15:00+13всв34445 0.0 10211218
18:00+10всв26645 0.0 1020179
21:00+5всв26860 0.0 1020111
23 сентября, чт
чт2300:00+4всв25870 0.0 1018107
03:00+3в2493100 0.0 101669
06:00+3в269272 0.0 1015133
09:00+6юв257878 0.0 1013275
12:00+6юв3790100 0.0 1012397
15:00+7юв3889100 0.1 1011673
18:00+8ююв4884100 0.1 1009756
21:00+8ююв4108399 0.2 1008705